Regional Weather Roundup
Issued by NWS

Home | Current Version | Previous Version | Graphics & Text | Print | Product List | Glossary On
Versions: 1 2 3 4 5 6 7 8 9 10 11 12 13 14 15 16 17 18 19 20 21 22 23 24 25 26 27 28
000
ASUS45 KPSR 241410
RWRAZ

ARIZONA HOURLY REGIONAL WEATHER ROUNDUP
NATIONAL WEATHER SERVICE PHOENIX AZ
700 AM MST FRI FEB 24 2017

NOTE: FAIR INDICATES FEW OR NO CLOUDS BELOW 12,000 FEET WITH NO
SIGNIFICANT WEATHER AND/OR OBSTRUCTIONS TO VISIBILITY.

AZZ001>003-036-241500-
NORTHWEST ARIZONA

CITY           SKY/WX    TMP DP  RH WIND       PRES   REMARKS
BULLHEAD CITY  CLEAR     41  27  56 CALM      30.09S
KINGMAN        CLEAR     26   4  38 E6        30.05R WCI  19
$$

AZZ004>008-015-016-018-241500-
NORTH CENTRAL ARIZONA

CITY           SKY/WX    TMP DP  RH WIND       PRES   REMARKS
GRAND CANYON   CLEAR     13  10  88 NE5       29.96R WCI   5
WILLIAMS       CLEAR     12   7  79 CALM      29.97S
PRESCOTT       CLEAR     22  13  68 S6        30.01R WCI  14
FLAGSTAFF      CLEAR     16   6  65 SW6       29.95R WCI   7
PAYSON         CLEAR     28  16  59 CALM      30.03R
PAGE           CLEAR     32   9  38 CALM      29.96R
$$

AZZ009>014-017-241500-
NORTHEAST ARIZONA

CITY           SKY/WX    TMP DP  RH WIND       PRES   REMARKS
WINSLOW        CLEAR     20  12  71 SW8       29.99S WCI  10
SAINT JOHNS    CLEAR     25  15  66 W5        29.98R WCI  19
WINDOW ROCK    CLEAR     19   7  59 S3        29.92S
SHOW LOW       LGT RAIN  19  14  79 S7        29.99S WCI  10
$$

AZZ023-241500-
GREATER PHOENIX AREA

CITY           SKY/WX    TMP DP  RH WIND       PRES   REMARKS
PHOENIX        CLEAR     43  33  68 E6        30.05R
BUCKEYE        CLEAR     34  34 100 NW6       30.08R WCI  29
GLENDALE       CLEAR     41  32  70 CALM      30.08R
LUKE AFB       CLEAR     38  31  75 CALM      30.06R
DEER VALLEY    CLEAR     39  31  72 CALM      30.04R
SCOTTSDALE     CLEAR     40  32  73 CALM      30.06R
MESA-FALCON    CLEAR    N/A N/A N/A N6        30.03
MESA-GATEWAY   CLEAR     37  30  75 E10       30.06R WCI  30
CHANDLER       CLEAR     37  30  75 E5        30.06R WCI  34
$$

AZZ027-028-241500-
SOUTHWEST MARICOPA COUNTY AND PINAL COUNTY

CITY           SKY/WX    TMP DP  RH WIND       PRES   REMARKS
CASA GRANDE    NOT AVBL
GILA BEND      CLEAR     41  19  42 S6          N/A
$$

AZZ503-504-507>509-241500-
SOUTHEAST ARIZONA

CITY           SKY/WX    TMP DP  RH WIND       PRES   REMARKS
TUCSON         CLEAR     36  20  52 SE6       30.08R WCI  31
DAVIS-MONTHAN  CLEAR     34  20  57 SE7       30.07R WCI  28
RYAN FIELD     CLEAR     32  21  64 S3        30.08R
NOGALES        CLEAR     31  20  63 CALM      30.05R
SIERRA VISTA   CLEAR     31  18  58 W8        30.05R WCI  23
DOUGLAS        CLEAR     26  17  68 N9        30.06R WCI  17
SAFFORD          N/A     32  17  54 MISG      30.03R
$$

AZZ020-021-025-026-031-241500-
SOUTHWEST ARIZONA

CITY           SKY/WX    TMP DP  RH WIND       PRES   REMARKS
YUMA           CLEAR     47  30  51 N3        30.09R
$$

CAZ031-033-041-043-047-048-061-241500-
SOUTHERN CALIFORNIA

CITY           SKY/WX    TMP DP  RH WIND       PRES   REMARKS
DOWNTOWN L.A.  CLEAR     44  26  49 CALM      30.12R
L.A. AIRPORT   PTCLDY    46  24  42 N6        30.13R
SAN DIEGO      MOCLDY    48  35  60 E3        30.15R
BURBANK        CLEAR     39  20  46 SW7       30.11R WCI  34
ONTARIO        PTCLDY    36  31  82 CALM      30.11R
RIVERSIDE      CLEAR     39  35  86 CALM      30.12R
PALM SPRINGS   CLEAR     48  34  58 W5        30.11R
EL CENTRO NAS  PTCLDY    40  26  57 CALM      30.12R
IMPERIAL       CLEAR     44  31  60 W3        30.10R
BLYTHE         CLEAR     44  29  55 SW6       30.10R
NEEDLES        CLEAR     42  29  59 W6        30.09R
$$

NVZ020-UTZ003-241500-
SOUTHERN NEVADA-UTAH

CITY           SKY/WX    TMP DP  RH WIND       PRES   REMARKS
LAS VEGAS      CLEAR     39  17  41 CALM      30.07R
SALT LAKE CITY CLOUDY    27  20  75 W12       30.00R WCI  17
$$

NMZ009-TXZ055-241500-
NEW MEXICO-WEST TEXAS

CITY           SKY/WX    TMP DP  RH WIND       PRES   REMARKS
ALBUQUERQUE    PTCLDY    30  18  60 SW7       29.93R WCI  23
EL PASO        CLEAR     44  11  26 VRB5      29.98R
$$


........................KEY........................
SKY/WX - SKY CONDITION/WEATHER
TMP    - TEMPERATURE IN FAHRENHEIT
DP     - DEW POINT IN FAHRENHEIT
RH     - RELATIVE HUMIDITY IN PERCENT
WIND   - DIRECTION AND SPEED IN MILES PER HOUR (MPH)
VRB    - VARIABLE WIND DIRECTION
PRES   - MEAN SEA LEVEL PRESSURE IN INCHES OF MERCURY
         F - FALLING PRESSURE   R - RISING PRESSURE
         S - STEADY PRESSURE
VSB    - VISIBILITY IN MILES
HX     - HEAT INDEX IN FAHRENHEIT
WCI    - WIND CHILL INDEX IN FAHRENHEIT
TC     - TEMPERATURE IN CELSIUS WHICH IS ALSO KNOWN AS
         TEMPERATURE IN CENTIGRADE
AFB    - AIR FORCE BASE
         LUKE AFB IS LUKE AIR FORCE BASE
         DAVIS-MONTHAN IS DAVIS-MONTHAN AIR FORCE BASE
NAS    - NAVAL AIR STATION
         EL CENTRO NAS IS EL CENTRO NAVAL AIR STATION
N/A    - NOT AVAILABLE





USA.gov is the U.S. government's official web portal to all federal, state and local government web resources and services.